• In United Kingdom
  • List of Countries
  • For 7 days
  • Water Temperature
  • Satellite Maps
  • Weather Map
  • Weather Widgets
  • user-avatar
    Login

    Hourly Weather Dolina

    Today, 25 May, Friday

    Time Temperature Precipitation Wind Pressure Humidity
    00:00 +15°C° 0.6 mm 0 mps 725 mmHg 100%
    01:00 +16°C° 0.2 mm 1 mps 725 mmHg 100%
    02:00 +15°C° 1.4 mm 1 mps 725 mmHg 100%
    03:00 +15°C° 0.2 mm 1 mps 725 mmHg 100%
    04:00 +15°C° 0 mm 1 mps 725 mmHg 100%
    05:00 +15°C° 0 mm 1 mps 725 mmHg 100%
    06:00 +14°C° 0 mm 0 mps 725 mmHg 100%
    07:00 +14°C° 0 mm 0 mps 725 mmHg 100%
    08:00 +15°C° 0 mm 1 mps 725 mmHg 100%
    09:00 +15°C° 0 mm 1 mps 725 mmHg 100%
    10:00 +18°C° 0 mm 1 mps 726 mmHg 99%
    11:00 +19°C° 0 mm 1 mps 726 mmHg 96%
    12:00 +20°C° 0 mm 1 mps 726 mmHg 89%
    13:00 +20°C° 0 mm 2 mps 725 mmHg 87%
    14:00 +21°C° 0 mm 2 mps 725 mmHg 85%
    15:00 +22°C° 0 mm 3 mps 725 mmHg 85%
    16:00 +21°C° 0 mm 3 mps 724 mmHg 87%
    17:00 +21°C° 0.3 mm 4 mps 725 mmHg 91%
    18:00 +21°C° 0.2 mm 3 mps 725 mmHg 90%
    19:00 +20°C° 2.2 mm 2 mps 725 mmHg 95%
    20:00 +19°C° 1.4 mm 2 mps 725 mmHg 98%
    21:00 +20°C° 0.9 mm 1 mps 725 mmHg 100%
    22:00 +19°C° 0 mm 1 mps 725 mmHg 100%
    23:00 +18°C° 0 mm 2 mps 726 mmHg 100%

    Tomorrow, 26 May, Saturday

    Time Temperature Precipitation Wind Pressure Humidity
    00:00 +17°C° 0 mm 3 mps 726 mmHg 100%
    01:00 +17°C° 0 mm 3 mps 726 mmHg 100%
    02:00 +17°C° 0 mm 3 mps 726 mmHg 100%
    03:00 +17°C° 0 mm 3 mps 727 mmHg 100%
    04:00 +16°C° 0 mm 3 mps 727 mmHg 100%
    05:00 +16°C° 0 mm 3 mps 727 mmHg 100%
    06:00 +16°C° 0 mm 3 mps 727 mmHg 100%
    07:00 +17°C° 0 mm 3 mps 728 mmHg 100%
    08:00 +17°C° 0 mm 4 mps 728 mmHg 100%
    09:00 +18°C° 0 mm 4 mps 728 mmHg 99%
    10:00 +19°C° 0 mm 5 mps 728 mmHg 99%
    11:00 +19°C° 0 mm 5 mps 729 mmHg 97%
    12:00 +20°C° 0 mm 5 mps 729 mmHg 91%
    13:00 +21°C° 0 mm 5 mps 728 mmHg 89%
    14:00 +21°C° 0.1 mm 5 mps 728 mmHg 90%
    15:00 +21°C° 0 mm 5 mps 728 mmHg 88%
    16:00 +21°C° 0 mm 5 mps 728 mmHg 89%
    17:00 +20°C° 0 mm 5 mps 728 mmHg 93%
    18:00 +20°C° 0 mm 5 mps 728 mmHg 92%
    19:00 +19°C° 0 mm 5 mps 728 mmHg 94%
    20:00 +17°C° 0 mm 5 mps 727 mmHg 95%
    21:00 +18°C° 0 mm 4 mps 728 mmHg 97%
    22:00 +17°C° 0 mm 4 mps 728 mmHg 100%
    23:00 +17°C° 0 mm 4 mps 728 mmHg 100%

    Day after tomorrow, 27 May, Sunday

    Time Temperature Precipitation Wind Pressure Humidity
    00:00 +15°C° 0 mm 5 mps 728 mmHg 99%
    01:00 +14°C° 0 mm 4 mps 727 mmHg 100%
    02:00 +14°C° 0 mm 4 mps 727 mmHg 100%
    03:00 +14°C° 0 mm 4 mps 727 mmHg 100%
    04:00 +14°C° 0 mm 4 mps 727 mmHg 100%
    05:00 +14°C° 0 mm 4 mps 727 mmHg 100%
    06:00 +14°C° 0 mm 4 mps 727 mmHg 100%
    07:00 +14°C° 0 mm 4 mps 728 mmHg 100%
    08:00 +14°C° 0 mm 4 mps 728 mmHg 100%
    09:00 +15°C° 0 mm 4 mps 728 mmHg 100%
    10:00 +15°C° 0 mm 5 mps 728 mmHg 100%
    11:00 +16°C° 0 mm 5 mps 728 mmHg 100%
    12:00 +19°C° 0 mm 4 mps 728 mmHg 98%
    13:00 +19°C° 0 mm 5 mps 728 mmHg 96%
    14:00 +19°C° 0 mm 5 mps 727 mmHg 93%
    15:00 +20°C° 0 mm 4 mps 728 mmHg 90%
    16:00 +20°C° 0 mm 5 mps 727 mmHg 92%
    17:00 +20°C° 0 mm 5 mps 727 mmHg 91%
    18:00 +20°C° 0 mm 5 mps 727 mmHg 92%
    19:00 +19°C° 0 mm 4 mps 727 mmHg 93%
    20:00 +18°C° 0 mm 3 mps 727 mmHg 97%
    21:00 +18°C° 0 mm 3 mps 727 mmHg 99%
    22:00 +17°C° 0 mm 4 mps 727 mmHg 100%
    23:00 +15°C° 0 mm 4 mps 727 mmHg 100%

    28 May, Monday

    Time Temperature Precipitation Wind Pressure Humidity
    00:00 +16°C° 0 mm 3 mps 728 mmHg 100%
    01:00 +16°C° 0 mm 3 mps 727 mmHg 100%
    02:00 +14°C° 0 mm 3 mps 728 mmHg 100%
    03:00 +14°C° 0 mm 3 mps 728 mmHg 100%
    04:00 +14°C° 0 mm 3 mps 728 mmHg 100%
    05:00 +14°C° 0 mm 3 mps 728 mmHg 100%
    06:00 +13°C° 0 mm 3 mps 728 mmHg 100%
    07:00 +14°C° 0 mm 3 mps 728 mmHg 100%
    08:00 +14°C° 0 mm 3 mps 728 mmHg 100%
    09:00 +15°C° 0 mm 4 mps 729 mmHg 100%
    10:00 +17°C° 0 mm 4 mps 729 mmHg 100%
    11:00 +16°C° 0 mm 5 mps 729 mmHg 100%
    12:00 +17°C° 0 mm 5 mps 730 mmHg 97%
    13:00 +19°C° 0 mm 5 mps 729 mmHg 95%
    14:00 +20°C° 0 mm 5 mps 729 mmHg 90%

    29 May, Tuesday

    Time Temperature Precipitation Wind Pressure Humidity

    30 May, Wednesday

    Time Temperature Precipitation Wind Pressure Humidity
    Show more